Location: Chantarel
(45.1638°N, 1.7873°E)
Time: 15:37:23
(UTC+00:00)

MOS 1 - Pass Details

Date: 03 March 2021
Orbit: 878 x 892 km, 99.1° (Epoch: 11 April)

Event Time Altitude Azimuth Distance (km) Brightness Sun altitude
Exits shadow 19:25:59 26° 135° (SE) 1,676 5.3 -18.9°
Maximum altitude 19:29:02 54° 69° (ENE) 1,069 4.4 -19.4°
Drops below altitude 10° 19:34:34 10° 354° (N) 2,558 6.9 -20.4°
Sets 19:37:00 0° 350° (N) 3,499 7.7 -20.8°
